sat.trackr.live / text

‹ back to catalog

COSMOS 2539

NORAD 44457 · 2019-048A

PAYLOAD ACTIVE UNKNOWN

§ Identity

Operator
Country
CIS
Launch date
2019-08-05
Launch site
TYMSC
Launch vehicle
Mass (kg)
RCS (m²)

Purposes: comms

External: N2YO · Heavens-Above · Gunter

§ Orbital elements

Epoch: 2026-05-25T07:13:23.210976Z

Period
1,436.13 min
Inclination
0.0473°
Eccentricity
0.0000604
Mean motion
1.00269731 rev/d
Perigee alt
35,784.6 km
Apogee alt
35,789.7 km
Semi-major
42,165.3 km
B*
0.0000e+0
RAAN
98.4967°
Arg perigee
53.0795°
Mean anomaly
211.6698°
Rev number
2,499

§ Raw data

COSMOS 25391 44457U 19048A   26145.30096309  .00000079  00000+0  00000+0 0  99982 44457   0.0473  98.4967 0000604  53.0795 211.6698  1.00269731 24998

JSON: /api/v1/satellites/44457 · /tle

For live sub-satellite position, see the globe view (requires WebGL).

§ Visibility from observer

Set your observer location to see the next 7 days of passes ≥ 10°. The values pass through the URL so the page stays shareable.

No JS? Fill the form by hand. The geolocation button needs JavaScript.